Angeles - Pampanga, Philippines

12:55 AM PHT on November 29, 2014 (GMT +0800)
Clark International | Change Station
CLOSE
Current Station
Airport
Location: Angeles / Pampanga,
Elevation: 509 ft
Nearby Weather Stations

Elev 509 ft 15.19 °N, 120.56 °E | Updated -282 second ago

Mostly Cloudy
Mostly Cloudy
77 °F
Feels Like 77 °F
N
2
Wind Variable Wind from WNW

Today
High -- | Low -- °F
--% Chance of Precip.
Yesterday
High -- | Low -- °F
Precip. -- in
6:06 AM 5:25 PM
Waxing Crescent, 42% visible
Pressure 29.89 in
Visibility 6.2 miles
Clouds Few 4200 ft
Mostly Cloudy 30000 ft
Dew Point 73 °F
Humidity 89%
Rainfall 0.00 in
Snow Depth Not available.
UV 0 out of 12
Pollen Not available.
Air Quality Not available.
Flu Activity Not available.
METAR RPLC 281700Z 29002KT 9999 FEW042 BKN300 25/23 Q1012 RMK NOSIG A2990

More Conditions Fewer Conditions

Pressure 29.89 in
Visibility 6.2 miles
Clouds Few 4200 ft
Mostly Cloudy 30000 ft
Dew Point 73 °F
Humidity 89%
Rainfall 0.00 in
Snow Depth Not available.
UV 0 out of 12
Pollen Not available.
Air Quality Not available.
Flu Activity Not available.
METAR RPLC 281700Z 29002KT 9999 FEW042 BKN300 25/23 Q1012 RMK NOSIG A2990

More Conditions Fewer Conditions

10-Day Weather Forecast

Almanac

Astronomy

Nov. 29, 2014 Rise Set
Actual Time
Civil Twilight
Nautical Twilight
Astronomical Twilight
Moon
Length of Visible Light
Length of Day
Tomorrow will be .
, % of the Moon is Illuminated

Today's Extremes

Country Highs Country Lows

Community

WunderPhotos

Upload Photos

1,774,235 photos uploaded!

WunderBlogs® & News

Nearby

Air Quality

  Air Quality AQ Index Pollutant
Not available.

Snow Depth

Station Depth Elevation

Earthquake Activity

City Distance Mag. Time & Date
Minimum magnitude displayed is 2.5.

Coastal Water Temperatures

Place Temperature

Nearby Weather Stations